Regional Weather Roundup
Issued by NWS

Home | Current Version | Previous Version | Text Only | Print | Product List | Glossary Off
Versions: 1 2 3 4 5 6 7 8 9 10 11 12 13 14 15 16 17 18 19 20 21 22 23 24 25 26 27 28 29 30 31 32 33 34 35 36 37 38 39 40 41 42 43 44 45 46 47 48 49 50

000
ASUS43 KBIS 280920
RWRND

NORTH DAKOTA REGIONAL WEATHER ROUNDUP
NATIONAL WEATHER SERVICE BISMARCK ND
300 AM CST FRI NOV 28 2014

NOTE: "FAIR" INDICATES FEW OR NO CLOUDS BELOW 12,000 FEET WITH NO
SIGNIFICANT WEATHER AND/OR OBSTRUCTIONS TO VISIBILITY.


NDZ001>003-009>011-017-281000-
NORTHWEST NORTH DAKOTA

CITY           SKY/WX    TMP DP  RH WIND       PRES   REMARKS
WILLISTON      MIX PCPN  19  15  84 E12       29.75F FOG     WCI   7
MINOT          CLOUDY     9   4  80 E12       29.86S WCI  -6
MINOT AFB      CLOUDY     9   5  85 SE12      29.88R WCI  -6
$$

NDZ018>021-031>035-040>046-281000-
SOUTHWEST NORTH DAKOTA

CITY           SKY/WX    TMP DP  RH WIND       PRES   REMARKS
BISMARCK       PTCLDY     7   3  84 E9        29.86S WCI  -7
DICKINSON      CLOUDY    20  17  88 E8        29.68F WCI  10
GARRISON         N/A     11   7  84 E10       29.84R WCI  -3
HETTINGER ARPT CLOUDY    25  22  88 S5        29.73R WCI  19
$$

NDZ004>008-012>016-024-026-027-054-281000-
NORTHEAST NORTH DAKOTA

CITY           SKY/WX    TMP DP  RH WIND       PRES   REMARKS
GRAND FORKS    CLOUDY    11   6  81 SE9       30.05F WCI  -2
GRND FRKS AFB  CLOUDY    10   7  85 SE7       30.05S WCI   0
DEVILS LAKE    CLOUDY     9  -2  61 SE9       29.93F WCI  -5
$$

NDZ022-023-025-028>030-036>039-047>053-281000-
SOUTHEAST NORTH DAKOTA

CITY           SKY/WX    TMP DP  RH WIND       PRES   REMARKS
FARGO          CLOUDY    13   6  74 SE9G20    30.02F WCI   1
JAMESTOWN      CLOUDY     7   3  84 SE8       29.93R WCI  -6
$$



USA.gov is the U.S. government's official web portal to all federal, state and local government web resources and services.